Regional Weather Roundup
Issued by NWS

Home | Current Version | Previous Version | Graphics & Text | Print | Product List | Glossary On
Versions: 1 2 3 4 5 6 7 8 9 10 11 12 13 14 15 16 17 18 19 20 21 22 23 24 25 26 27 28 29 30 31 32 33 34 35 36 37 38 39 40 41 42 43 44 45 46 47 48 49 50
000
ASUS45 KABQ 182110
RWRNM
NEW MEXICO REGIONAL WEATHER ROUNDUP
NATIONAL WEATHER SERVICE ALBUQUERQUE NM
200 PM MST SAT NOV 18 2017

NOTE: "FAIR" MEANS FEW OR NO CLOUDS BELOW 12,000 FEET AGL WITH NO
       SIGNIFICANT WEATHER OR OBSTRUCTIONS TO VISION.

      THIS PRODUCT IS RELEASED AS TWO VERSIONS.  ONE VERSION NEAR
      THE TOP OF THE HOUR CONTAINING PRELIMINARY DATA FROM ALBUQUERQUE
      AND OTHER STATIONS.  A FINAL VERSION WITH ADDITIONAL DATA IS
      ISSUED ABOUT 10 MINUTES AFTER THE HOUR.

NMZ501-503-504-510>518-182200-
NORTHWEST PLATEAU/NORTHCENTRAL MOUNTAINS

CITY           SKY/WX    TMP DP  RH WIND       PRES   REMARKS
FARMINGTON     FAIR      43  11  27 VRB3      30.32F
LOS ALAMOS     FAIR      43  13  30 CALM      30.30F
SANTA FE       FAIR      48  12  23 VRB3      30.28F
TAOS           FAIR      43  -1  16 NW6       30.32S
ANGEL FIRE     FAIR      39   4  22 SW9       30.28F WCI  33

$$
NMZ402-403-502-505>509-182200-
WESTCENTRAL MOUNTAINS/SOUTHWEST MOUNTAINS

CITY           SKY/WX    TMP DP  RH WIND       PRES   REMARKS
GALLUP         FAIR      46  14  27 W3        30.32F
GRANTS         FAIR      46  -1  14 N12G18    30.33F
SILVER CITY    FAIR      65  20  17 SE7       30.21S

$$
NMZ407-409-411-412-182200-
SOUTHERN DESERTS

CITY           SKY/WX    TMP DP  RH WIND       PRES   REMARKS
DEMING         FAIR      67  18  15 NE12      30.18F
LAS CRUCES     FAIR      64  15  15 N12       30.21S
HOLLOMAN AFB   FAIR      64   2   8 N10G20    30.23S
ALAMOGORDO     FAIR      63   7  11 NW10      30.22S
T OR C         FAIR      59   8  13 NE14      30.23F

$$
NMZ519>523-182200-
CENTRAL VALLEYS/CENTRAL HIGHLANDS

CITY           SKY/WX    TMP DP  RH WIND       PRES   REMARKS
ALBUQUERQUE    FAIR      49   2  14 NW8       30.30F
DOUBLE EAGLE   MOSUNNY   48   3  15 NW6       30.31F
MORIARTY ARPT  FAIR      52  10  18 N8G16     30.29S
CLINES CORNERS FAIR      48  10  21 NW7       30.29
BELEN          FAIR      53   0  11 N8G16     30.30S
SOCORRO        FAIR      54   1  11 N13G18    30.28F

$$
NMZ524>526-539-540-182200-
SOUTHCENTRAL MOUNTAINS

CITY           SKY/WX    TMP DP  RH WIND       PRES   REMARKS
RUIDOSO        FAIR      46  18  31 SE15G23   30.31S

$$
NMZ527>531-182200-
NORTHEAST HIGHLANDS/NORTHEAST PLAINS

CITY           SKY/WX    TMP DP  RH WIND       PRES   REMARKS
LAS VEGAS      FAIR      47  22  37 S20       30.26S
RATON          FAIR      47   9  21 SW9G21    30.23S
CLAYTON        FAIR      46  13  26 NW10      30.26F

$$
NMZ532>537-182200-
EASTCENTRAL PLAINS

CITY           SKY/WX    TMP DP  RH WIND       PRES   REMARKS
SANTA ROSA     FAIR      50  17  26 CALM      30.28S
TUCUMCARI      FAIR      54  12  18 NE10G18   30.26S
CANNON AFB     FAIR      52  12  20 N13       30.29R
CLOVIS AIRPORT FAIR      51  11  20 NE18G25   30.28S

$$
NMZ028-029-538-182200-
SOUTHEAST PLAINS

CITY           SKY/WX    TMP DP  RH WIND       PRES   REMARKS
ROSWELL        FAIR      59  22  24 NE10G17   30.27F
ARTESIA        FAIR      59  25  27 NE9G18    30.27S
CARLSBAD       FAIR      61  28  28 N15       30.25F


$$




USA.gov is the U.S. government's official web portal to all federal, state and local government web resources and services.